owner,sensor,date,latitude,longitude,vertical_datum,wind_speed,wind_to_direction,wind_speed_of_gust,qcFlag 
TCOON,ioos:station:TCOON:003:1,2009-09-01T00:00:00Z,26.8015,-97.4706,0.0,0.9,222.0,1.0,'11111222,11111222,11111222' 
TCOON,ioos:station:TCOON:003:1,2009-09-01T02:00:00Z,26.8015,-97.4706,0.0,0.4,208.0,0.6,'11111222,11111222,11111222' 
TCOON,ioos:station:TCOON:003:1,2009-09-01T03:00:00Z,26.8015,-97.4706,0.0,1.5,136.0,1.8,'11111222,11111222,11111222' 
TCOON,ioos:station:TCOON:003:1,2009-09-01T04:00:00Z,26.8015,-97.4706,0.0,2.3,153.0,2.6,'11111222,11111222,11111222' 
TCOON,ioos:station:TCOON:003:1,2009-09-01T05:00:00Z,26.8015,-97.4706,0.0,1.2,161.0,1.3,'11111222,11111222,11111222' 
TCOON,ioos:station:TCOON:003:1,2009-09-01T06:00:00Z,26.8015,-97.4706,0.0,0.7,231.0,1.1,'11111222,11111222,11111222' 
TCOON,ioos:station:TCOON:003:1,2009-09-01T07:00:00Z,26.8015,-97.4706,0.0,1.4,285.0,1.5,'11111222,11111222,11111222' 
TCOON,ioos:station:TCOON:003:1,2009-09-01T08:00:00Z,26.8015,-97.4706,0.0,1.4,293.0,1.5,'11111222,11111222,11111222' 
TCOON,ioos:station:TCOON:003:1,2009-09-01T09:00:00Z,26.8015,-97.4706,0.0,1.8,316.0,1.9,'11111222,11111222,11111222' 
TCOON,ioos:station:TCOON:003:1,2009-09-01T10:00:00Z,26.8015,-97.4706,0.0,1.9,335.0,2.1,'11111222,11111222,11111222' 
TCOON,ioos:station:TCOON:003:1,2009-09-01T11:00:00Z,26.8015,-97.4706,0.0,1.8,360.0,2.1,'11111222,11144222,11111222' 
TCOON,ioos:station:TCOON:003:1,2009-09-01T12:00:00Z,26.8015,-97.4706,0.0,2.9,2.0,3.4,'11111222,11111222,11111222' 
TCOON,ioos:station:TCOON:003:1,2009-09-01T13:00:00Z,26.8015,-97.4706,0.0,2.5,1.0,2.9,'11111222,11111222,11111222' 
TCOON,ioos:station:TCOON:003:1,2009-09-01T14:00:00Z,26.8015,-97.4706,0.0,2.6,45.0,3.2,'11111222,11111222,11111222' 
TCOON,ioos:station:TCOON:003:1,2009-09-01T15:00:00Z,26.8015,-97.4706,0.0,3.7,37.0,4.3,'11111222,11111222,11111222' 
TCOON,ioos:station:TCOON:003:1,2009-09-01T16:00:00Z,26.8015,-97.4706,0.0,1.9,61.0,2.9,'11111222,11111222,11111222' 
TCOON,ioos:station:TCOON:003:1,2009-09-01T17:00:00Z,26.8015,-97.4706,0.0,4.6,112.0,5.5,'11111222,11111222,11111222' 
TCOON,ioos:station:TCOON:003:1,2009-09-01T18:00:00Z,26.8015,-97.4706,0.0,7.0,58.0,8.8,'11111222,11111222,11111222' 
TCOON,ioos:station:TCOON:003:1,2009-09-01T19:00:00Z,26.8015,-97.4706,0.0,4.7,73.0,5.7,'11111222,11111222,11111222' 
TCOON,ioos:station:TCOON:003:1,2009-09-01T20:00:00Z,26.8015,-97.4706,0.0,2.7,82.0,3.1,'11111222,11111222,11111222' 
TCOON,ioos:station:TCOON:003:1,2009-09-01T21:00:00Z,26.8015,-97.4706,0.0,4.5,72.0,5.3,'11111222,11111222,11111222' 
TCOON,ioos:station:TCOON:003:1,2009-09-01T22:00:00Z,26.8015,-97.4706,0.0,4.9,46.0,5.7,'11111222,11111222,11111222' 
TCOON,ioos:station:TCOON:003:1,2009-09-01T23:00:00Z,26.8015,-97.4706,0.0,4.1,55.0,4.6,'11111222,11111222,11111222' 
TCOON,ioos:station:TCOON:003:1,2009-09-02T00:00:00Z,26.8015,-97.4706,0.0,2.9,46.0,3.4,'11111222,11111222,11111222' 
TCOON,ioos:station:TCOON:003:1,2009-09-02T01:00:00Z,26.8015,-97.4706,0.0,2.5,74.0,3.2,'11111222,11111222,11111222' 
TCOON,ioos:station:TCOON:003:1,2009-09-02T02:00:00Z,26.8015,-97.4706,0.0,3.7,72.0,4.3,'11111222,11111222,11111222' 
TCOON,ioos:station:TCOON:003:1,2009-09-02T03:00:00Z,26.8015,-97.4706,0.0,3.3,115.0,4.0,'11111222,11111222,11111222' 
TCOON,ioos:station:TCOON:003:1,2009-09-02T04:00:00Z,26.8015,-97.4706,0.0,2.1,116.0,2.4,'11111222,11111222,11111222' 
TCOON,ioos:station:TCOON:003:1,2009-09-02T05:00:00Z,26.8015,-97.4706,0.0,1.4,112.0,1.6,'11111222,11111222,11111222' 
TCOON,ioos:station:TCOON:003:1,2009-09-02T06:00:00Z,26.8015,-97.4706,0.0,1.4,85.0,1.6,'11111222,11111222,11111222' 
TCOON,ioos:station:TCOON:003:1,2009-09-02T07:00:00Z,26.8015,-97.4706,0.0,2.0,32.0,2.2,'11111222,11111222,11111222' 
TCOON,ioos:station:TCOON:003:1,2009-09-02T08:00:00Z,26.8015,-97.4706,0.0,2.1,355.0,2.3,'11111222,11111222,11111222' 
TCOON,ioos:station:TCOON:003:1,2009-09-02T09:00:00Z,26.8015,-97.4706,0.0,2.2,354.0,2.3,'11111222,11111222,11111222' 
TCOON,ioos:station:TCOON:003:1,2009-09-02T10:00:00Z,26.8015,-97.4706,0.0,4.3,115.0,4.8,'11111222,11111222,11111222' 
TCOON,ioos:station:TCOON:003:1,2009-09-02T11:00:00Z,26.8015,-97.4706,0.0,2.3,130.0,2.6,'11111222,11111222,11111222' 
TCOON,ioos:station:TCOON:003:1,2009-09-02T12:00:00Z,26.8015,-97.4706,0.0,3.5,165.0,4.1,'11111222,11111222,11111222' 
TCOON,ioos:station:TCOON:003:1,2009-09-02T13:00:00Z,26.8015,-97.4706,0.0,2.3,137.0,2.6,'11111222,11111222,11111222' 
TCOON,ioos:station:TCOON:003:1,2009-09-02T14:00:00Z,26.8015,-97.4706,0.0,1.3,182.0,1.7,'11111222,11111222,11111222' 
TCOON,ioos:station:TCOON:003:1,2009-09-02T15:00:00Z,26.8015,-97.4706,0.0,0.2,145.0,0.6,'11111222,11111222,11111222' 
TCOON,ioos:station:TCOON:003:1,2009-09-02T16:00:00Z,26.8015,-97.4706,0.0,2.6,77.0,3.6,'11111222,11111222,11111222' 
TCOON,ioos:station:TCOON:003:1,2009-09-02T17:00:00Z,26.8015,-97.4706,0.0,2.4,110.0,3.3,'11111222,11111222,11111222' 
TCOON,ioos:station:TCOON:003:1,2009-09-02T18:00:00Z,26.8015,-97.4706,0.0,2.3,139.0,4.4,'11111222,11111222,11111222' 
TCOON,ioos:station:TCOON:003:1,2009-09-02T19:00:00Z,26.8015,-97.4706,0.0,5.4,122.0,7.4,'11111222,11111222,11111222' 
TCOON,ioos:station:TCOON:003:1,2009-09-02T20:00:00Z,26.8015,-97.4706,0.0,4.4,102.0,5.8,'11111222,11111222,11111222' 
TCOON,ioos:station:TCOON:003:1,2009-09-02T21:00:00Z,26.8015,-97.4706,0.0,5.0,109.0,6.5,'11111222,11111222,11111222' 
TCOON,ioos:station:TCOON:003:1,2009-09-02T22:00:00Z,26.8015,-97.4706,0.0,4.6,131.0,5.5,'11111222,11111222,11111222' 
TCOON,ioos:station:TCOON:003:1,2009-09-02T23:00:00Z,26.8015,-97.4706,0.0,3.9,130.0,4.7,'11111222,11111222,11111222' 
TCOON,ioos:station:TCOON:003:1,2009-09-03T00:00:00Z,26.8015,-97.4706,0.0,6.0,124.0,7.1,'11111222,11111222,11111222' 
TCOON,ioos:station:TCOON:003:1,2009-09-03T01:00:00Z,26.8015,-97.4706,0.0,6.5,133.0,7.2,'11111222,11111222,11111222' 
TCOON,ioos:station:TCOON:003:1,2009-09-03T02:00:00Z,26.8015,-97.4706,0.0,5.6,139.0,6.4,'11111222,11111222,11111222' 
TCOON,ioos:station:TCOON:003:1,2009-09-03T03:00:00Z,26.8015,-97.4706,0.0,5.3,146.0,6.1,'11111222,11111222,11111222' 
TCOON,ioos:station:TCOON:003:1,2009-09-03T04:00:00Z,26.8015,-97.4706,0.0,4.3,149.0,4.8,'11111222,11111222,11111222' 
TCOON,ioos:station:TCOON:003:1,2009-09-03T05:00:00Z,26.8015,-97.4706,0.0,4.1,165.0,4.8,'11111222,11111222,11111222' 
TCOON,ioos:station:TCOON:003:1,2009-09-03T06:00:00Z,26.8015,-97.4706,0.0,3.2,205.0,3.6,'11111222,11111222,11111222' 
TCOON,ioos:station:TCOON:003:1,2009-09-03T07:00:00Z,26.8015,-97.4706,0.0,3.3,223.0,3.7,'11111222,11111222,11111222' 
TCOON,ioos:station:TCOON:003:1,2009-09-03T08:00:00Z,26.8015,-97.4706,0.0,2.0,223.0,2.3,'11111222,11111222,11111222' 
TCOON,ioos:station:TCOON:003:1,2009-09-03T09:00:00Z,26.8015,-97.4706,0.0,1.1,166.0,1.4,'11111222,11111222,11111222' 
TCOON,ioos:station:TCOON:003:1,2009-09-03T10:00:00Z,26.8015,-97.4706,0.0,1.2,92.0,1.3,'11111222,11111222,11111222' 
TCOON,ioos:station:TCOON:003:1,2009-09-03T11:00:00Z,26.8015,-97.4706,0.0,2.6,248.0,2.9,'11111222,11111222,11111222' 
TCOON,ioos:station:TCOON:003:1,2009-09-03T12:00:00Z,26.8015,-97.4706,0.0,0.6,275.0,0.7,'11111222,11111222,11111222' 
TCOON,ioos:station:TCOON:003:1,2009-09-03T13:00:00Z,26.8015,-97.4706,0.0,1.2,218.0,1.6,'11111222,11111222,11111222' 
TCOON,ioos:station:TCOON:003:1,2009-09-03T14:00:00Z,26.8015,-97.4706,0.0,4.0,169.0,4.5,'11111222,11111222,11111222' 
TCOON,ioos:station:TCOON:003:1,2009-09-03T15:00:00Z,26.8015,-97.4706,0.0,4.1,167.0,4.6,'11111222,11111222,11111222' 
TCOON,ioos:station:TCOON:003:1,2009-09-03T16:00:00Z,26.8015,-97.4706,0.0,3.9,150.0,4.6,'11111222,11111222,11111222' 
TCOON,ioos:station:TCOON:003:1,2009-09-03T17:00:00Z,26.8015,-97.4706,0.0,3.9,166.0,4.5,'11111222,11111222,11111222' 
TCOON,ioos:station:TCOON:003:1,2009-09-03T18:00:00Z,26.8015,-97.4706,0.0,3.9,187.0,4.3,'11111222,11111222,11111222' 
TCOON,ioos:station:TCOON:003:1,2009-09-03T19:00:00Z,26.8015,-97.4706,0.0,5.1,170.0,6.4,'11111222,11111222,11111222' 
TCOON,ioos:station:TCOON:003:1,2009-09-03T20:00:00Z,26.8015,-97.4706,0.0,5.9,138.0,7.4,'11111222,11111222,11111222' 
TCOON,ioos:station:TCOON:003:1,2009-09-03T21:00:00Z,26.8015,-97.4706,0.0,6.1,126.0,8.1,'11111222,11111222,11111222' 
TCOON,ioos:station:TCOON:003:1,2009-09-03T22:00:00Z,26.8015,-97.4706,0.0,7.2,131.0,8.5,'11111222,11111222,11111222' 
TCOON,ioos:station:TCOON:003:1,2009-09-03T23:00:00Z,26.8015,-97.4706,0.0,6.3,133.0,7.5,'11111222,11111222,11111222' 
TCOON,ioos:station:TCOON:003:1,2009-09-04T00:00:00Z,26.8015,-97.4706,0.0,7.8,127.0,9.2,'11111222,11111222,11111222' 
TCOON,ioos:station:TCOON:003:1,2009-09-04T01:00:00Z,26.8015,-97.4706,0.0,7.7,131.0,9.6,'11111222,11111222,11111222' 
TCOON,ioos:station:TCOON:003:1,2009-09-04T02:00:00Z,26.8015,-97.4706,0.0,6.6,136.0,7.5,'11111222,11111222,11111222' 
TCOON,ioos:station:TCOON:003:1,2009-09-04T03:00:00Z,26.8015,-97.4706,0.0,6.2,141.0,7.0,'11111222,11111222,11111222' 
TCOON,ioos:station:TCOON:003:1,2009-09-04T04:00:00Z,26.8015,-97.4706,0.0,5.1,146.0,5.9,'11111222,11111222,11111222' 
TCOON,ioos:station:TCOON:003:1,2009-09-04T05:00:00Z,26.8015,-97.4706,0.0,4.9,157.0,5.5,'11111222,11111222,11111222' 
TCOON,ioos:station:TCOON:003:1,2009-09-04T06:00:00Z,26.8015,-97.4706,0.0,5.0,162.0,5.6,'11111222,11111222,11111222' 
TCOON,ioos:station:TCOON:003:1,2009-09-04T07:00:00Z,26.8015,-97.4706,0.0,3.3,228.0,4.2,'11111222,11111222,11111222' 
TCOON,ioos:station:TCOON:003:1,2009-09-04T08:00:00Z,26.8015,-97.4706,0.0,4.2,215.0,4.9,'11111222,11111222,11111222' 
TCOON,ioos:station:TCOON:003:1,2009-09-04T09:00:00Z,26.8015,-97.4706,0.0,3.2,238.0,3.6,'11111222,11111222,11111222' 
TCOON,ioos:station:TCOON:003:1,2009-09-04T10:00:00Z,26.8015,-97.4706,0.0,2.0,282.0,2.4,'11111222,11111222,11111222' 
TCOON,ioos:station:TCOON:003:1,2009-09-04T11:00:00Z,26.8015,-97.4706,0.0,0.4,80.0,0.6,'11111222,11111222,11111222' 
TCOON,ioos:station:TCOON:003:1,2009-09-04T12:00:00Z,26.8015,-97.4706,0.0,1.7,65.0,1.8,'11111222,11111222,11111222' 
TCOON,ioos:station:TCOON:003:1,2009-09-04T13:00:00Z,26.8015,-97.4706,0.0,0.1,27.0,0.4,'11111222,11111222,11111222' 
TCOON,ioos:station:TCOON:003:1,2009-09-04T14:00:00Z,26.8015,-97.4706,0.0,0.9,190.0,1.1,'11111222,11111222,11111222' 
TCOON,ioos:station:TCOON:003:1,2009-09-04T15:00:00Z,26.8015,-97.4706,0.0,1.8,209.0,2.1,'11111222,11111222,11111222' 
TCOON,ioos:station:TCOON:003:1,2009-09-04T16:00:00Z,26.8015,-97.4706,0.0,3.8,121.0,4.8,'11111222,11111222,11111222' 
TCOON,ioos:station:TCOON:003:1,2009-09-04T17:00:00Z,26.8015,-97.4706,0.0,5.8,99.0,7.6,'11111222,11111222,11111222' 
TCOON,ioos:station:TCOON:003:1,2009-09-04T18:00:00Z,26.8015,-97.4706,0.0,4.0,109.0,5.1,'11111222,11111222,11111222' 
TCOON,ioos:station:TCOON:003:1,2009-09-04T19:00:00Z,26.8015,-97.4706,0.0,5.7,95.0,6.8,'11111222,11111222,11111222' 
TCOON,ioos:station:TCOON:003:1,2009-09-04T20:00:00Z,26.8015,-97.4706,0.0,5.2,100.0,6.6,'11111222,11111222,11111222' 
TCOON,ioos:station:TCOON:003:1,2009-09-04T21:00:00Z,26.8015,-97.4706,0.0,5.3,121.0,6.7,'11111222,11111222,11111222' 
TCOON,ioos:station:TCOON:003:1,2009-09-04T22:00:00Z,26.8015,-97.4706,0.0,5.8,130.0,7.6,'11111222,11111222,11111222' 
TCOON,ioos:station:TCOON:003:1,2009-09-04T23:00:00Z,26.8015,-97.4706,0.0,6.4,99.0,7.7,'11111222,11111222,11111222' 
TCOON,ioos:station:TCOON:003:1,2009-09-05T00:00:00Z,26.8015,-97.4706,0.0,5.7,119.0,6.8,'11111222,11111222,11111222' 
TCOON,ioos:station:TCOON:003:1,2009-09-05T01:00:00Z,26.8015,-97.4706,0.0,5.5,125.0,7.0,'11111222,11111222,11111222' 
TCOON,ioos:station:TCOON:003:1,2009-09-05T02:00:00Z,26.8015,-97.4706,0.0,5.6,120.0,7.1,'11111222,11111222,11111222' 
TCOON,ioos:station:TCOON:003:1,2009-09-05T03:00:00Z,26.8015,-97.4706,0.0,4.7,133.0,5.7,'11111222,11111222,11111222' 
TCOON,ioos:station:TCOON:003:1,2009-09-05T04:00:00Z,26.8015,-97.4706,0.0,4.3,140.0,4.9,'11111222,11111222,11111222' 
TCOON,ioos:station:TCOON:003:1,2009-09-05T05:00:00Z,26.8015,-97.4706,0.0,3.8,145.0,4.2,'11111222,11111222,11111222' 
TCOON,ioos:station:TCOON:003:1,2009-09-05T06:00:00Z,26.8015,-97.4706,0.0,4.6,147.0,5.0,'11111222,11111222,11111222' 
TCOON,ioos:station:TCOON:003:1,2009-09-05T07:00:00Z,26.8015,-97.4706,0.0,3.1,166.0,3.4,'11111222,11111222,11111222' 
TCOON,ioos:station:TCOON:003:1,2009-09-05T08:00:00Z,26.8015,-97.4706,0.0,1.4,237.0,1.6,'11111222,11111222,11111222' 
TCOON,ioos:station:TCOON:003:1,2009-09-05T09:00:00Z,26.8015,-97.4706,0.0,1.4,266.0,1.7,'11111222,11111222,11111222' 
TCOON,ioos:station:TCOON:003:1,2009-09-05T10:00:00Z,26.8015,-97.4706,0.0,1.8,316.0,2.0,'11111222,11111222,11111222' 
TCOON,ioos:station:TCOON:003:1,2009-09-05T11:00:00Z,26.8015,-97.4706,0.0,2.1,349.0,2.3,'11111222,11111222,11111222' 
TCOON,ioos:station:TCOON:003:1,2009-09-05T12:00:00Z,26.8015,-97.4706,0.0,2.5,351.0,2.8,'11111222,11111222,11111222' 
TCOON,ioos:station:TCOON:003:1,2009-09-05T13:00:00Z,26.8015,-97.4706,0.0,4.2,26.0,4.9,'11111222,11111222,11111222' 
TCOON,ioos:station:TCOON:003:1,2009-09-05T14:00:00Z,26.8015,-97.4706,0.0,6.1,172.0,6.8,'11111222,11111222,11111222' 
TCOON,ioos:station:TCOON:003:1,2009-09-05T15:00:00Z,26.8015,-97.4706,0.0,2.9,46.0,3.4,'11111222,11111222,11111222' 
TCOON,ioos:station:TCOON:003:1,2009-09-05T16:00:00Z,26.8015,-97.4706,0.0,3.0,20.0,3.3,'11111222,11111222,11111222' 
TCOON,ioos:station:TCOON:003:1,2009-09-05T17:00:00Z,26.8015,-97.4706,0.0,3.6,24.0,4.0,'11111222,11111222,11111222' 
TCOON,ioos:station:TCOON:003:1,2009-09-05T18:00:00Z,26.8015,-97.4706,0.0,2.5,73.0,3.1,'11111222,11111222,11111222' 
TCOON,ioos:station:TCOON:003:1,2009-09-05T19:00:00Z,26.8015,-97.4706,0.0,4.4,62.0,5.6,'11111222,11111222,11111222' 
TCOON,ioos:station:TCOON:003:1,2009-09-05T20:00:00Z,26.8015,-97.4706,0.0,5.2,65.0,7.1,'11111222,11111222,11111222' 
TCOON,ioos:station:TCOON:003:1,2009-09-05T21:00:00Z,26.8015,-97.4706,0.0,4.5,88.0,5.1,'11111222,11111222,11111222' 
TCOON,ioos:station:TCOON:003:1,2009-09-05T22:00:00Z,26.8015,-97.4706,0.0,5.0,90.0,6.4,'11111222,11111222,11111222' 
TCOON,ioos:station:TCOON:003:1,2009-09-05T23:00:00Z,26.8015,-97.4706,0.0,4.8,94.0,5.8,'11111222,11111222,11111222' 
TCOON,ioos:station:TCOON:003:1,2009-09-06T00:00:00Z,26.8015,-97.4706,0.0,3.4,107.0,4.2,'11111222,11111222,11111222' 
TCOON,ioos:station:TCOON:003:1,2009-09-06T01:00:00Z,26.8015,-97.4706,0.0,2.6,95.0,3.1,'11111222,11111222,11111222' 
TCOON,ioos:station:TCOON:003:1,2009-09-06T02:00:00Z,26.8015,-97.4706,0.0,2.2,111.0,2.7,'11111222,11111222,11111222' 
TCOON,ioos:station:TCOON:003:1,2009-09-06T03:00:00Z,26.8015,-97.4706,0.0,1.4,92.0,1.7,'11111222,11111222,11111222' 
TCOON,ioos:station:TCOON:003:1,2009-09-06T04:00:00Z,26.8015,-97.4706,0.0,1.6,103.0,1.9,'11111222,11111222,11111222' 
TCOON,ioos:station:TCOON:003:1,2009-09-06T05:00:00Z,26.8015,-97.4706,0.0,1.5,113.0,1.7,'11111222,11111222,11111222' 
TCOON,ioos:station:TCOON:003:1,2009-09-06T06:00:00Z,26.8015,-97.4706,0.0,2.1,302.0,2.4,'11111222,11111222,11111222' 
TCOON,ioos:station:TCOON:003:1,2009-09-06T07:00:00Z,26.8015,-97.4706,0.0,2.1,302.0,2.4,'11111222,11111222,11111222' 
TCOON,ioos:station:TCOON:003:1,2009-09-06T08:00:00Z,26.8015,-97.4706,0.0,2.5,319.0,2.8,'11111222,11111222,11111222' 
TCOON,ioos:station:TCOON:003:1,2009-09-06T09:00:00Z,26.8015,-97.4706,0.0,3.1,324.0,3.4,'11111222,11111222,11111222' 
TCOON,ioos:station:TCOON:003:1,2009-09-06T10:00:00Z,26.8015,-97.4706,0.0,3.3,331.0,3.5,'11111222,11111222,11111222' 
TCOON,ioos:station:TCOON:003:1,2009-09-06T11:00:00Z,26.8015,-97.4706,0.0,3.4,347.0,3.9,'11111222,11111222,11111222' 
TCOON,ioos:station:TCOON:003:1,2009-09-06T12:00:00Z,26.8015,-97.4706,0.0,3.6,360.0,4.0,'11111222,11144222,11111222' 
TCOON,ioos:station:TCOON:003:1,2009-09-06T13:00:00Z,26.8015,-97.4706,0.0,5.7,17.0,6.5,'11111222,11111222,11111222' 
TCOON,ioos:station:TCOON:003:1,2009-09-06T14:00:00Z,26.8015,-97.4706,0.0,5.5,10.0,6.4,'11111222,11111222,11111222' 
TCOON,ioos:station:TCOON:003:1,2009-09-06T15:00:00Z,26.8015,-97.4706,0.0,4.4,35.0,5.2,'11111222,11111222,11111222' 
TCOON,ioos:station:TCOON:003:1,2009-09-06T16:00:00Z,26.8015,-97.4706,0.0,5.9,57.0,7.4,'11111222,11111222,11111222' 
TCOON,ioos:station:TCOON:003:1,2009-09-06T17:00:00Z,26.8015,-97.4706,0.0,4.8,66.0,6.3,'11111222,11111222,11111222' 
TCOON,ioos:station:TCOON:003:1,2009-09-06T18:00:00Z,26.8015,-97.4706,0.0,6.2,102.0,7.4,'11111222,11111222,11111222' 
TCOON,ioos:station:TCOON:003:1,2009-09-06T19:00:00Z,26.8015,-97.4706,0.0,6.7,105.0,8.5,'11111222,11111222,11111222' 
TCOON,ioos:station:TCOON:003:1,2009-09-06T20:00:00Z,26.8015,-97.4706,0.0,5.7,120.0,6.9,'11111222,11111222,11111222' 
TCOON,ioos:station:TCOON:003:1,2009-09-06T21:00:00Z,26.8015,-97.4706,0.0,5.9,130.0,7.0,'11111222,11111222,11111222' 
TCOON,ioos:station:TCOON:003:1,2009-09-06T22:00:00Z,26.8015,-97.4706,0.0,4.9,132.0,6.0,'11111222,11111222,11111222' 
TCOON,ioos:station:TCOON:003:1,2009-09-06T23:00:00Z,26.8015,-97.4706,0.0,5.2,130.0,6.5,'11111222,11111222,11111222' 
TCOON,ioos:station:TCOON:003:1,2009-09-07T00:00:00Z,26.8015,-97.4706,0.0,4.2,133.0,4.7,'11111222,11111222,11111222' 
TCOON,ioos:station:TCOON:003:1,2009-09-07T01:00:00Z,26.8015,-97.4706,0.0,4.0,137.0,4.4,'11111222,11111222,11111222' 
TCOON,ioos:station:TCOON:003:1,2009-09-07T02:00:00Z,26.8015,-97.4706,0.0,3.6,123.0,4.6,'11111222,11111222,11111222' 
TCOON,ioos:station:TCOON:003:1,2009-09-07T03:00:00Z,26.8015,-97.4706,0.0,4.3,137.0,5.0,'11111222,11111222,11111222' 
TCOON,ioos:station:TCOON:003:1,2009-09-07T04:00:00Z,26.8015,-97.4706,0.0,3.8,164.0,4.5,'11111222,11111222,11111222' 
TCOON,ioos:station:TCOON:003:1,2009-09-07T05:00:00Z,26.8015,-97.4706,0.0,4.3,166.0,4.9,'11111222,11111222,11111222' 
TCOON,ioos:station:TCOON:003:1,2009-09-07T06:00:00Z,26.8015,-97.4706,0.0,2.6,239.0,3.0,'11111222,11111222,11111222' 
TCOON,ioos:station:TCOON:003:1,2009-09-07T07:00:00Z,26.8015,-97.4706,0.0,2.6,237.0,3.2,'11111222,11111222,11111222' 
TCOON,ioos:station:TCOON:003:1,2009-09-07T08:00:00Z,26.8015,-97.4706,0.0,2.2,229.0,2.7,'11111222,11111222,11111222' 
TCOON,ioos:station:TCOON:003:1,2009-09-07T09:00:00Z,26.8015,-97.4706,0.0,1.7,251.0,2.1,'11111222,11111222,11111222' 
TCOON,ioos:station:TCOON:003:1,2009-09-07T10:00:00Z,26.8015,-97.4706,0.0,0.4,255.0,0.6,'11111222,11111222,11111222' 
TCOON,ioos:station:TCOON:003:1,2009-09-07T11:00:00Z,26.8015,-97.4706,0.0,1.0,296.0,1.2,'11111222,11111222,11111222' 
TCOON,ioos:station:TCOON:003:1,2009-09-07T12:00:00Z,26.8015,-97.4706,0.0,1.8,321.0,2.1,'11111222,11111222,11111222' 
TCOON,ioos:station:TCOON:003:1,2009-09-07T13:00:00Z,26.8015,-97.4706,0.0,1.7,349.0,2.1,'11111222,11111222,11111222' 
TCOON,ioos:station:TCOON:003:1,2009-09-07T14:00:00Z,26.8015,-97.4706,0.0,0.9,287.0,1.1,'11111222,11111222,11111222' 
TCOON,ioos:station:TCOON:003:1,2009-09-07T15:00:00Z,26.8015,-97.4706,0.0,0.9,96.0,1.3,'11111222,11111222,11111222' 
TCOON,ioos:station:TCOON:003:1,2009-09-07T16:00:00Z,26.8015,-97.4706,0.0,1.1,185.0,1.5,'11111222,11111222,11111222' 
TCOON,ioos:station:TCOON:003:1,2009-09-07T17:00:00Z,26.8015,-97.4706,0.0,4.7,95.0,6.2,'11111222,11111222,11111222' 
TCOON,ioos:station:TCOON:003:1,2009-09-07T18:00:00Z,26.8015,-97.4706,0.0,5.0,98.0,6.6,'11111222,11111222,11111222' 
TCOON,ioos:station:TCOON:003:1,2009-09-07T19:00:00Z,26.8015,-97.4706,0.0,5.9,111.0,7.2,'11111222,11111222,11111222' 
TCOON,ioos:station:TCOON:003:1,2009-09-07T20:00:00Z,26.8015,-97.4706,0.0,6.6,119.0,8.1,'11111222,11111222,11111222' 
TCOON,ioos:station:TCOON:003:1,2009-09-07T21:00:00Z,26.8015,-97.4706,0.0,7.0,130.0,8.3,'11111222,11111222,11111222' 
TCOON,ioos:station:TCOON:003:1,2009-09-07T22:00:00Z,26.8015,-97.4706,0.0,7.6,112.0,8.7,'11111222,11111222,11111222' 
TCOON,ioos:station:TCOON:003:1,2009-09-07T23:00:00Z,26.8015,-97.4706,0.0,7.6,120.0,8.8,'11111222,11111222,11111222' 
TCOON,ioos:station:TCOON:003:1,2009-09-08T00:00:00Z,26.8015,-97.4706,0.0,5.6,133.0,6.6,'11111222,11111222,11111222' 
TCOON,ioos:station:TCOON:003:1,2009-09-08T01:00:00Z,26.8015,-97.4706,0.0,6.9,131.0,7.7,'11111222,11111222,11111222' 
TCOON,ioos:station:TCOON:003:1,2009-09-08T02:00:00Z,26.8015,-97.4706,0.0,5.6,153.0,6.7,'11111222,11111222,11111222' 
TCOON,ioos:station:TCOON:003:1,2009-09-08T03:00:00Z,26.8015,-97.4706,0.0,5.5,162.0,6.4,'11111222,11111222,11111222' 
TCOON,ioos:station:TCOON:003:1,2009-09-08T04:00:00Z,26.8015,-97.4706,0.0,4.9,164.0,5.5,'11111222,11111222,11111222' 
TCOON,ioos:station:TCOON:003:1,2009-09-08T05:00:00Z,26.8015,-97.4706,0.0,3.3,167.0,3.9,'11111222,11111222,11111222' 
TCOON,ioos:station:TCOON:003:1,2009-09-08T06:00:00Z,26.8015,-97.4706,0.0,2.8,206.0,3.2,'11111222,11111222,11111222' 
TCOON,ioos:station:TCOON:003:1,2009-09-08T07:00:00Z,26.8015,-97.4706,0.0,3.8,205.0,4.3,'11111222,11111222,11111222' 
TCOON,ioos:station:TCOON:003:1,2009-09-08T08:00:00Z,26.8015,-97.4706,0.0,4.2,196.0,4.7,'11111222,11111222,11111222' 
TCOON,ioos:station:TCOON:003:1,2009-09-08T09:00:00Z,26.8015,-97.4706,0.0,3.5,201.0,4.3,'11111222,11111222,11111222' 
TCOON,ioos:station:TCOON:003:1,2009-09-08T10:00:00Z,26.8015,-97.4706,0.0,2.9,198.0,3.6,'11111222,11111222,11111222' 
TCOON,ioos:station:TCOON:003:1,2009-09-08T11:00:00Z,26.8015,-97.4706,0.0,3.1,138.0,3.5,'11111222,11111222,11111222' 
TCOON,ioos:station:TCOON:003:1,2009-09-08T12:00:00Z,26.8015,-97.4706,0.0,1.4,122.0,1.7,'11111222,11111222,11111222' 
TCOON,ioos:station:TCOON:003:1,2009-09-08T13:00:00Z,26.8015,-97.4706,0.0,2.1,145.0,2.5,'11111222,11111222,11111222' 
TCOON,ioos:station:TCOON:003:1,2009-09-08T14:00:00Z,26.8015,-97.4706,0.0,0.9,159.0,1.1,'11111222,11111222,11111222' 
TCOON,ioos:station:TCOON:003:1,2009-09-08T15:00:00Z,26.8015,-97.4706,0.0,4.1,115.0,5.0,'11111222,11111222,11111222' 
TCOON,ioos:station:TCOON:003:1,2009-09-08T16:00:00Z,26.8015,-97.4706,0.0,5.8,151.0,6.8,'11111222,11111222,11111222' 
TCOON,ioos:station:TCOON:003:1,2009-09-08T17:00:00Z,26.8015,-97.4706,0.0,6.1,128.0,7.3,'11111222,11111222,11111222' 
TCOON,ioos:station:TCOON:003:1,2009-09-08T18:00:00Z,26.8015,-97.4706,0.0,5.2,140.0,6.7,'11111222,11111222,11111222' 
TCOON,ioos:station:TCOON:003:1,2009-09-08T19:00:00Z,26.8015,-97.4706,0.0,7.7,170.0,,'1111122,1111122,1111122' 
TCOON,ioos:station:TCOON:003:1,2009-09-08T20:00:00Z,26.8015,-97.4706,0.0,7.7,140.0,,'1111122,1111122,1111122' 
TCOON,ioos:station:TCOON:003:1,2009-09-08T21:00:00Z,26.8015,-97.4706,0.0,8.2,150.0,,'1111122,1111122,1111122' 
TCOON,ioos:station:TCOON:003:1,2009-09-08T22:00:00Z,26.8015,-97.4706,0.0,7.7,140.0,,'1111122,1111122,1111122' 
TCOON,ioos:station:TCOON:003:1,2009-09-08T23:00:00Z,26.8015,-97.4706,0.0,7.7,154.0,8.6,'11111222,11111222,11111222' 
TCOON,ioos:station:TCOON:003:1,2009-09-09T00:00:00Z,26.8015,-97.4706,0.0,8.0,156.0,9.6,'11111222,11111222,11111222' 
TCOON,ioos:station:TCOON:003:1,2009-09-09T01:00:00Z,26.8015,-97.4706,0.0,6.2,150.0,,'1111122,1111122,1111122' 
TCOON,ioos:station:TCOON:003:1,2009-09-09T02:00:00Z,26.8015,-97.4706,0.0,6.7,160.0,,'1111122,1111122,1111122' 
TCOON,ioos:station:TCOON:003:1,2009-09-09T03:00:00Z,26.8015,-97.4706,0.0,7.2,180.0,,'1111122,1111122,1111122' 
TCOON,ioos:station:TCOON:003:1,2009-09-09T04:00:00Z,26.8015,-97.4706,0.0,7.7,160.0,,'1111122,1111122,1111122' 
TCOON,ioos:station:TCOON:003:1,2009-09-09T05:00:00Z,26.8015,-97.4706,0.0,4.1,200.0,,'1111122,1111122,1111122' 
TCOON,ioos:station:TCOON:003:1,2009-09-09T06:00:00Z,26.8015,-97.4706,0.0,6.2,200.0,,'1111122,1111122,1111122' 
TCOON,ioos:station:TCOON:003:1,2009-09-09T07:00:00Z,26.8015,-97.4706,0.0,4.6,190.0,,'1111122,1111122,1111122' 
TCOON,ioos:station:TCOON:003:1,2009-09-09T08:00:00Z,26.8015,-97.4706,0.0,4.6,170.0,,'1111122,1111122,1111122' 
TCOON,ioos:station:TCOON:003:1,2009-09-09T09:00:00Z,26.8015,-97.4706,0.0,4.6,150.0,,'1111122,1111122,1111122' 
TCOON,ioos:station:TCOON:003:1,2009-09-09T10:00:00Z,26.8015,-97.4706,0.0,5.1,170.0,,'1111122,1111122,1111122' 
TCOON,ioos:station:TCOON:003:1,2009-09-09T11:00:00Z,26.8015,-97.4706,0.0,4.1,150.0,,'1111122,1111122,1111122' 
TCOON,ioos:station:TCOON:003:1,2009-09-09T12:00:00Z,26.8015,-97.4706,0.0,3.1,120.0,,'1111122,1111122,1111122' 
TCOON,ioos:station:TCOON:003:1,2009-09-09T13:00:00Z,26.8015,-97.4706,0.0,4.6,170.0,,'1111122,1111122,1111122' 